Home   Weather   Reutte   Past weeks

Flag for Austria Past Weather in Reutte, Tyrol, Austria — Yesterday and Last 2 Weeks

Now
N/A

Passing clouds.


Feels Like: N/A
Forecast: 28 / 38 °F
Wind: 14 mph from Southeast

Location: Landeck

Current Time: Feb 28, 2017 at 6:07:45 pm

Latest Report: Feb 28, 2017 at 5:00 pm


Visibility: 2 mi

Pressure: N/A

Humidity: N/A

Dew Point: N/A

Location of ReutteLocation

Past Weather in Reutte — Graph

°F

Reutte Temperature Yesterday

Maximum temperature yesterday: 62 °F (at 2:00 pm)
Minimum temperature yesterday: 36 °F (at 5:00 am)
Average temperature yesterday: 46 °F

High & Low Weather Summary for the Past Weeks

 TemperatureHumidityPressure
High66 °F (Feb 23, 2:00 pm)93% (Feb 18, 2:00 am)30.73 "Hg (Feb 18, 2:00 am)
Low26 °F (Feb 19, 8:00 am)17% (Feb 23, 3:00 pm)29.38 "Hg (Feb 28, 3:00 pm)
Average41 °F57%30.18 "Hg
* Reported Feb 13 4:00 pm — Feb 28 4:00 pm, Reutte, Weather by CustomWeather, © 2017

Note: Actual official high and low records may vary slightly from our data, if they occured in-between our weather recording intervals... More about our weather records

Advertising

Reutte Weather History for the Previous 24 Hours

Scroll right to see more
 ConditionsComfort  
Time TempWeatherWind HumidityBarometerVisibility
4:00 pm
Tue, Feb 28
46 °FCool.1 mph57%29.38 "HgN/A
3:00 pm46 °FCool.3 mph55%29.38 "HgN/A
2:00 pm47 °FCool.2 mph52%29.41 "HgN/A
1:00 pm47 °FCool.2 mph51%29.47 "HgN/A
12:00 pm46 °FCool.1 mph56%29.50 "HgN/A
11:00 am47 °FCool.2 mph52%29.53 "HgN/A
10:00 am46 °FCool.No wind49%29.54 "HgN/A
9:00 am43 °FQuite cool.No wind54%29.56 "HgN/A
8:00 am40 °FQuite cool.No wind59%29.56 "HgN/A
7:00 am40 °FQuite cool.No wind59%29.56 "HgN/A
6:00 am41 °FQuite cool.2 mph57%29.55 "HgN/A
5:00 am43 °FQuite cool.6 mph51%29.55 "HgN/A
4:00 am44 °FQuite cool.5 mph49%29.58 "HgN/A
3:00 am45 °FCool.5 mph47%29.59 "HgN/A
2:00 am39 °FPassing clouds.33 mph60%29.67 "Hg1 mi
1:00 am42 °FQuite cool.2 mph52%29.68 "HgN/A
12:00 am40 °FChilly.2 mph59%29.73 "HgN/A
11:00 pm
Mon, Feb 27
40 °FQuite cool.1 mph58%29.73 "HgN/A
10:00 pm40 °FQuite cool.1 mph57%29.73 "HgN/A
9:00 pm42 °FQuite cool.1 mph54%29.72 "HgN/A
8:00 pm44 °FQuite cool.1 mph50%29.71 "HgN/A
7:00 pm46 °FCool.1 mph44%29.69 "HgN/A
6:00 pm51 °FCool.3 mph33%29.65 "HgN/A
Weather by CustomWeather, © 2017

See weather overviewHow to use our weather pages